Change the Weather History Date:

Saturday, October 20, 2012

  Actual Average Record
Temperature  
Mean Temperature 49 °F 50 °F  
Max Temperature 53 °F 59 °F 78 °F (1939)
Min Temperature 45 °F 40 °F 22 °F (1972)
Degree Days  
Heating Degree Days 16 15  
Month to date heating degree days 261 252  
Since 1 July heating degree days 451 435  
Cooling Degree Days 0 0  
Month to date cooling degree days 1 3  
Year to date cooling degree days 759 541  
Moisture  
Dew Point 41 °F    
Average Humidity 78    
Maximum Humidity 92    
Minimum Humidity 63    
Precipitation  
Precipitation 0.02 in 0.09 in 0.43 in (1976)
Month to date precipitation 1.65 1.82  
Year to date precipitation 34.88 31.79  
Snow  
Snow 0.00 in 0.00 in - ()
Month to date snowfall 0.0 0.3  
Since 1 July snowfall T 0.3  
Since 1 September snowfall 0.0 0.3  
Snow Depth 0.00 in    
Sea Level Pressure  
Sea Level Pressure 29.75 in    
Wind  
Wind Speed 10 mph (SW)    
Max Wind Speed 22 mph    
Max Gust Speed 26 mph    
Visibility 10 miles    
Events Rain    
T = Trace of Precipitation, MM = Missing Value Source: NWS Daily Summary

Daily Weather History Graph

Daily Weather History Graph

Search for Another Location

Airport or City:

Trip Planner

Search our weather history database for the weather conditions in past years. The results will help you decide how hot, cold, wet, or windy it might be!

Date:

Astronomy

Oct. 20, 2012 Rise Set
Actual Time 7:40 AM EDT 6:33 PM EDT
Civil Twilight 7:12 AM EDT 7:01 PM EDT
Nautical Twilight 6:40 AM EDT 7:33 PM EDT
Astronomical Twilight 6:08 AM EDT 8:05 PM EDT
Moon 1:16 PM EDT (10/20) 11:16 PM EDT (10/20)
Length of Visible Light 11h 49m
Length of Day
10h 53m
Waxing Crescent, 34% of the Moon is Illuminated
Oct 20
Waxing Crescent
Oct 21
First Quarter
Oct 29
Full
Nov 6
Last Quarter
Nov 13
New

Hourly Weather History & Observations

Time (EDT) Temp. Windchill Dew Point Humidity Pressure Visibility Wind Dir Wind Speed Gust Speed Precip Events Conditions
12:10 AM 46.4 °F 40.7 °F 42.8 °F 87% 29.67 in 10.0 mi SW 12.7 mph - N/A   Overcast
12:41 AM 44.6 °F 40.2 °F 42.8 °F 93% 29.68 in 10.0 mi SSW 8.1 mph - N/A   Mostly Cloudy
12:51 AM 45.0 °F 40.1 °F 42.1 °F 90% 29.68 in 10.0 mi SSW 9.2 mph - N/A   Mostly Cloudy
1:38 AM 44.6 °F 40.2 °F 41.0 °F 87% 29.68 in 10.0 mi SSW 8.1 mph - N/A   Mostly Cloudy
1:51 AM 45.0 °F 40.1 °F 41.0 °F 86% 29.69 in 10.0 mi SSW 9.2 mph - N/A   Mostly Cloudy
2:41 AM 44.6 °F 40.2 °F 41.0 °F 87% 29.68 in 10.0 mi SSW 8.1 mph - N/A   Overcast
2:51 AM 45.0 °F 40.6 °F 41.0 °F 86% 29.68 in 10.0 mi SSW 8.1 mph - N/A   Overcast
3:43 AM 46.4 °F 42.9 °F 42.8 °F 87% 29.69 in 10.0 mi South 6.9 mph - N/A   Overcast
3:51 AM 46.0 °F 42.5 °F 41.0 °F 83% 29.69 in 10.0 mi South 6.9 mph - N/A   Mostly Cloudy
4:51 AM 46.0 °F 42.5 °F 41.0 °F 83% 29.69 in 10.0 mi South 6.9 mph - N/A   Overcast
5:39 AM 44.6 °F 41.4 °F 42.8 °F 93% 29.69 in 7.0 mi South 5.8 mph - 0.01 in Rain Light Rain
5:51 AM 45.0 °F 40.6 °F 42.1 °F 90% 29.70 in 10.0 mi SSW 8.1 mph 19.6 mph 0.01 in Rain Light Rain
6:41 AM 44.6 °F 40.7 °F 42.8 °F 93% 29.70 in 10.0 mi SSW 6.9 mph - 0.00 in Rain Light Rain
6:51 AM 45.0 °F 41.8 °F 43.0 °F 93% 29.70 in 10.0 mi SSW 5.8 mph - 0.01 in Rain Light Rain
7:43 AM 44.6 °F 40.7 °F 41.0 °F 87% 29.70 in 10.0 mi SSW 6.9 mph - 0.00 in   Mostly Cloudy
7:51 AM 45.0 °F 41.2 °F 41.0 °F 86% 29.71 in 10.0 mi SSW 6.9 mph - 0.00 in   Mostly Cloudy
8:13 AM 44.6 °F 40.2 °F 41.0 °F 87% 29.71 in 10.0 mi SW 8.1 mph - N/A   Mostly Cloudy
8:51 AM 45.0 °F 40.6 °F 41.0 °F 86% 29.73 in 10.0 mi SSW 8.1 mph - N/A   Mostly Cloudy
9:51 AM 46.0 °F 40.2 °F 42.1 °F 86% 29.74 in 10.0 mi SW 12.7 mph 19.6 mph N/A   Overcast
10:51 AM 46.9 °F - 41.0 °F 80% 29.75 in 10.0 mi SW 15.0 mph 20.7 mph 0.00 in   Overcast
11:19 AM 48.2 °F - 41.0 °F 76% 29.74 in 10.0 mi SW 15.0 mph 23.0 mph N/A   Mostly Cloudy
11:51 AM 52.0 °F - 39.0 °F 61% 29.75 in 10.0 mi WSW 13.8 mph 26.5 mph N/A   Mostly Cloudy
12:31 PM 51.8 °F - 39.2 °F 62% 29.75 in 10.0 mi SSW 18.4 mph 25.3 mph N/A   Mostly Cloudy
12:51 PM 50.0 °F - 39.9 °F 68% 29.75 in 10.0 mi SSW 13.8 mph 23.0 mph N/A   Mostly Cloudy
1:51 PM 51.1 °F - 39.0 °F 63% 29.76 in 10.0 mi WSW 15.0 mph 23.0 mph N/A   Overcast
2:51 PM 50.0 °F - 39.0 °F 66% 29.77 in 10.0 mi WSW 12.7 mph 20.7 mph 0.00 in   Overcast
3:51 PM 51.1 °F - 39.0 °F 63% 29.77 in 10.0 mi SW 11.5 mph - N/A   Overcast
4:51 PM 48.9 °F - 41.0 °F 74% 29.80 in 8.0 mi West 11.5 mph - 0.00 in   Overcast
5:51 PM 48.2 °F - 41.0 °F 76% 29.81 in 10.0 mi WSW 9.2 mph - N/A   Overcast
6:51 PM 48.9 °F - 39.9 °F 71% 29.85 in 10.0 mi WSW 12.7 mph - 0.00 in   Overcast
7:51 PM 48.0 °F - 41.0 °F 77% 29.86 in 10.0 mi WSW 9.2 mph - N/A   Overcast
8:51 PM 48.0 °F - 41.0 °F 77% 29.88 in 10.0 mi SW 8.1 mph - N/A   Overcast
9:51 PM 48.9 °F - 39.9 °F 71% 29.90 in 10.0 mi WSW 10.4 mph - N/A   Overcast
10:51 PM 48.0 °F - 39.9 °F 74% 29.91 in 10.0 mi WSW 11.5 mph - N/A   Overcast
11:51 PM 48.0 °F - 39.9 °F 74% 29.93 in 10.0 mi WSW 9.2 mph - N/A   Overcast